Dewpoint
57 57 57 58 57 57 57 57 57 56 56 56 56 56 56 56 56 56 57 57 57 57 57 57 57 57 57 57 57 57 57 56 49 48 45 30 60 67 65 65 66 73 72 56 50 48 49 51 55 56 56 57 63 62 63 66 67 66 60 52 49 50 52 54 56 57 56 56 57 60 60 59 58 60 59 57 55 55 53 53 55 55 56 58 60 61 62 64
58 57 58 58 58 58 57 57 57 57 57 56 56 56 56 56 55 56 56 57 57 57 57 57 57 57 57 56 56 57 56 54 49 47 39 58 70 68 67 70 72 74 70 47 44 46 48 50 53 54 54 55 59 62 60 65 67 63 55 53 56 54 58 60 60 59 58 55 59 59 59 58 58 59 58 57 54 52 52 53 53 55 57 60 61 61 63 64
58 58 58 58 58 58 58 58 57 57 57 57 57 56 55 55 55 55 55 56 56 57 57 57 57 57 57 56 57 57 56 50 48 44 47 71 69 70 68 72 75 75 56 43 43 46 48 49 51 53 53 50 52 57 59 63 64 59 60 50 57 61 61 64 65 63 62 58 58 58 57 60 58 58 55 58 52 51 51 51 53 53 56 59 60 61 63 65
58 58 58 58 58 58 58 58 57 57 57 56 57 57 56 56 55 55 55 55 56 56 56 57 57 57 56 56 57 57 55 48 28 43 52 71 69 70 73 75 74 71 49 39 41 44 47 50 54 53 48 47 51 57 59 60 65 58 60 57 60 62 60 63 65 64 62 61 57 59 57 58 57 57 55 57 53 54 54 51 52 53 56 58 60 61 63 64
58 58 58 58 58 58 58 58 57 57 57 57 56 56 56 56 56 55 55 55 56 56 56 56 57 56 56 57 58 56 53 37 30 45 61 70 72 70 74 74 73 52 39 36 38 42 46 52 54 51 44 41 49 55 54 60 62 62 60 61 63 63 62 64 65 65 63 61 59 57 56 56 58 58 54 54 53 51 53 51 52 54 56 58 59 60 62 62
58 58 58 58 58 58 58 58 57 57 57 57 57 56 56 56 56 56 55 55 55 56 56 56 56 56 56 58 56 56 48 17 39 50 69 70 70 72 74 69 64 34 29 36 40 46 50 53 52 47 41 41 42 44 54 59 62 59 60 62 63 63 63 65 64 66 66 63 61 60 59 55 57 58 58 56 56 57 55 52 53 55 56 58 60 60 60 60
58 58 58 58 58 58 58 58 57 57 57 57 57 57 56 56 56 56 56 55 55 55 56 56 56 56 57 58 55 53 41 37 41 62 70 70 70 72 73 67 61 28 32 38 44 49 50 48 45 40 38 38 44 43 52 57 58 58 59 63 64 65 64 64 63 64 61 63 64 65 59 58 56 56 58 57 56 58 53 53 55 56 57 59 59 58 58 60
58 58 58 58 58 58 58 58 58 57 57 57 57 57 57 56 56 56 56 55 55 56 56 56 56 56 58 55 53 40 33 37 48 64 70 72 68 69 69 42 28 25 30 37 45 47 47 42 41 37 36 37 43 46 51 59 56 60 62 64 65 65 65 63 62 62 63 64 65 63 60 60 58 58 56 57 55 54 53 55 56 56 57 57 57 57 59 61
58 58 58 58 58 58 58 58 58 58 58 58 58 57 57 56 56 56 56 55 55 56 56 56 56 56 58 56 46 28 36 45 55 60 61 56 53 60 51 38 30 27 21 26 40 46 48 41 35 34 33 39 44 46 53 58 59 57 61 63 65 65 66 62 63 64 64 64 65 62 61 60 60 58 56 57 57 55 55 55 55 55 56 56 56 58 59 60
58 58 58 58 58 58 58 59 58 58 58 58 57 57 57 56 56 55 56 55 55 55 56 56 56 58 56 54 38 27 40 57 60 55 50 52 56 53 45 36 33 32 29 23 29 40 45 41 30 32 35 39 47 51 54 55 56 59 62 63 64 64 65 65 64 63 64 63 64 62 60 62 60 59 54 58 55 55 55 55 55 54 55 55 56 58 59 60
58 58 58 58 58 58 58 58 58 58 58 57 57 57 56 56 56 55 55 55 55 55 56 56 57 57 55 48 36 28 41 49 58 58 56 55 50 44 40 39 37 33 31 25 24 40 37 34 35 32 32 46 53 53 56 56 59 62 61 63 64 64 66 65 66 64 65 63 64 63 61 61 60 59 59 57 55 55 54 55 54 53 55 57 57 58 61 60
57 57 57 57 58 58 58 58 58 58 58 57 57 56 56 55 55 55 55 55 55 56 56 57 57 56 53 48 32 33 39 38 53 55 54 48 44 42 42 39 38 37 32 25 27 34 37 37 36 32 25 31 49 52 55 59 61 63 62 62 62 63 65 65 65 65 64 63 63 63 60 60 57 56 59 55 55 54 54 55 53 53 55 57 58 58 61 61
57 57 57 57 57 57 58 58 58 57 57 57 56 56 55 55 55 55 54 55 56 56 57 58 58 56 54 41 35 43 48 49 48 50 49 44 42 43 43 40 38 38 37 31 27 30 38 38 36 29 26 32 51 55 59 59 63 63 62 55 59 60 61 64 66 65 63 65 64 63 52 57 57 59 58 60 55 54 55 56 53 53 55 56 57 58 59 60
57 57 56 56 56 57 57 57 57 57 57 56 55 55 55 55 55 55 55 55 56 58 58 58 58 56 55 29 42 47 48 47 45 45 42 40 32 37 42 42 40 39 38 29 28 31 27 30 31 30 25 32 52 54 55 55 59 56 59 57 46 44 52 63 63 64 62 65 64 61 53 56 60 60 60 60 56 54 54 54 53 52 53 55 56 57 58 59
57 56 56 56 56 56 57 57 57 56 56 55 55 56 56 54 55 55 56 56 57 58 59 60 57 55 49 37 46 50 57 43 36 36 34 29 25 30 36 38 36 37 36 30 31 33 35 34 32 27 39 43 53 51 49 46 52 52 45 43 44 41 52 62 65 63 62 65 63 61 54 56 59 59 60 60 58 54 53 52 52 52 53 54 55 56 56 57
57 56 56 56 56 56 56 56 56 56 55 55 54 55 55 56 55 56 56 57 58 58 58 57 55 50 40 28 45 55 40 34 33 32 31 30 27 28 28 26 30 31 29 26 26 31 32 31 26 36 43 47 47 44 40 38 43 48 38 39 40 41 41 55 63 63 63 63 63 60 55 56 59 58 59 59 60 56 54 52 52 52 52 53 54 55 56 56
57 56 56 55 55 56 56 56 56 55 55 54 55 55 57 57 57 57 58 58 57 58 56 52 50 49 32 42 47 41 32 35 33 29 29 29 33 32 31 30 27 25 24 30 32 30 25 25 36 35 37 39 41 37 33 32 30 35 38 35 41 38 36 40 60 62 62 61 60 60 56 55 58 58 59 58 60 56 55 54 52 53 53 55 55 55 55 58
56 56 56 55 55 56 56 55 55 55 54 54 56 58 58 59 59 59 59 58 56 55 55 55 51 43 26 33 33 28 31 32 33 30 26 31 35 32 32 31 32 30 31 33 29 26 23 24 22 24 33 33 37 34 30 28 31 33 35 35 39 35 44 44 45 60 61 61 58 58 57 56 57 58 58 58 57 57 56 54 53 53 53 55 54 55 56 56
56 56 55 55 55 55 55 55 55 54 54 55 58 59 60 60 59 55 49 51 50 50 43 44 41 27 20 24 28 30 33 34 33 32 32 34 35 34 33 31 29 31 31 32 29 28 24 25 23 26 22 26 32 32 30 38 33 36 38 36 37 35 32 39 54 60 60 57 59 57 55 55 57 57 59 59 58 57 56 56 56 55 54 56 55 54 55 56
55 55 55 54 54 55 55 55 54 53 53 56 58 58 56 54 50 45 48 48 40 29 27 29 31 28 25 27 26 31 32 32 30 31 33 35 35 34 32 27 25 26 25 24 25 29 23 24 23 22 20 19 24 31 31 29 30 32 38 38 35 37 39 57 58 60 61 59 56 57 57 56 57 57 59 58 58 56 56 55 55 56 55 54 53 54 55 57
55 55 54 54 54 55 55 54 53 52 51 53 52 51 31 29 26 23 26 26 27 32 29 27 27 27 27 30 30 30 25 27 28 29 32 37 34 31 26 24 20 16 18 19 19 20 24 24 20 19 18 21 24 25 25 26 27 30 33 32 29 39 36 56 56 59 61 57 55 57 57 57 58 58 59 60 58 56 55 55 54 54 55 54 55 55 55 57
54 54 54 54 54 54 54 54 53 52 51 54 49 33 29 31 33 33 32 24 25 29 30 29 35 31 32 32 32 33 30 24 24 28 35 35 32 26 24 20 17 13 16 16 16 16 18 17 17 16 16 17 17 16 21 25 28 28 31 29 28 31 47 56 60 59 61 59 52 55 53 55 58 59 59 59 58 56 54 54 54 55 54 54 54 55 56 55
54 53 54 54 54 53 53 53 52 50 53 50 36 26 28 30 31 37 33 29 29 31 30 30 31 30 30 35 33 33 27 22 20 24 31 33 30 26 22 18 17 13 14 12 10 11 11 11 13 14 13 12 11 11 16 21 24 23 24 26 24 44 38 32 57 59 60 57 55 55 52 53 58 60 59 60 60 60 60 59 57 55 54 54 53 54 55 56
54 54 54 54 54 53 53 52 51 51 51 40 36 27 30 29 31 34 32 27 24 28 30 32 31 28 26 27 33 30 25 22 19 21 30 27 24 23 22 19 16 15 12 11 9 7 7 7 7 8 9 8 7 8 9 11 16 18 20 26 26 33 39 41 50 58 59 58 58 54 52 52 56 57 57 59 59 61 62 61 61 58 56 55 54 55 55 55
53 54 54 54 54 54 52 51 49 40 41 41 38 28 27 34 38 36 32 29 31 30 35 33 34 32 31 33 33 28 23 26 21 21 28 24 20 22 17 19 18 16 12 11 10 8 7 7 9 8 9 9 10 9 8 9 11 13 24 23 23 24 30 44 56 56 54 50 56 55 39 49 54 56 56 57 57 58 59 58 58 59 57 57 55 55 55 55
53 54 54 54 54 53 52 46 43 42 38 31 26 31 32 33 35 41 34 27 22 29 30 22 32 24 31 28 30 28 26 20 23 24 26 22 26 19 19 17 17 14 13 14 9 8 7 12 10 8 10 10 10 8 9 10 9 14 18 27 25 24 32 45 52 50 39 40 54 57 42 40 52 53 55 56 56 57 59 58 57 57 57 56 57 55 54 54
53 54 54 55 54 53 41 29 47 42 33 24 28 35 36 32 52 42 32 29 22 28 19 21 22 27 29 30 29 26 17 17 25 27 26 26 20 21 16 14 16 17 14 13 15 9 11 13 12 13 13 11 9 8 8 10 8 8 38 33 33 33 37 45 47 42 41 51 57 54 50 43 43 52 55 55 56 57 57 58 58 55 56 53 55 54 56 54
54 54 54 54 53 53 50 49 47 37 28 36 37 37 37 45 50 43 35 22 19 30 24 22 19 25 21 29 29 20 19 19 18 24 26 28 24 20 17 14 13 13 16 16 11 14 10 11 11 12 13 10 7 7 15 12 10 30 45 35 31 34 41 49 48 43 46 41 35 42 52 47 44 51 57 56 57 56 58 57 58 58 56 56 55 53 53 54
54 54 54 53 53 52 52 50 47 39 38 39 40 40 36 49 41 32 28 21 26 23 21 21 19 20 19 26 25 20 17 19 16 22 24 27 24 19 15 16 14 14 15 15 10 12 13 15 14 13 11 8 12 13 11 16 12 43 45 39 43 43 45 48 42 41 47 41 34 42 46 40 39 51 54 56 54 56 55 56 57 58 58 57 54 54 53 54
54 53 53 53 52 53 52 51 47 41 42 43 41 43 37 38 35 25 22 15 25 17 19 18 17 16 18 18 20 20 17 17 19 21 23 22 22 19 18 18 16 15 14 15 13 13 15 26 26 14 12 18 25 29 17 19 40 44 44 42 42 43 46 47 44 44 41 40 39 46 48 45 35 43 48 53 54 53 53 54 56 57 59 59 57 54 54 54
53 53 53 53 51 49 46 39 43 45 46 49 46 42 37 34 24 19 18 20 24 18 16 18 17 16 15 14 13 17 16 16 18 20 19 21 19 18 17 16 17 14 13 13 12 13 13 18 20 16 20 30 36 36 39 42 43 43 41 39 40 45 46 46 43 45 35 30 43 52 50 50 38 42 46 50 51 52 53 54 54 55 57 59 59 55 53 54
52 52 52 52 52 52 43 22 40 43 49 46 43 34 29 21 21 19 15 26 22 19 13 14 15 14 14 13 12 14 14 15 17 17 15 16 17 16 16 15 15 13 11 12 9 11 10 11 13 25 35 33 37 35 38 40 42 41 38 39 32 37 37 38 36 31 29 32 38 47 52 49 44 40 41 48 49 52 53 53 55 54 56 57 58 58 56 54
51 51 52 53 53 52 51 46 48 51 49 44 38 28 22 19 22 15 13 17 18 20 15 16 13 13 13 13 12 13 14 13 16 16 15 16 15 16 15 13 13 12 11 10 9 8 9 14 14 23 36 40 35 23 38 39 41 40 36 36 30 26 28 26 24 28 25 42 45 45 53 40 35 36 44 44 51 55 55 56 55 55 56 57 58 59 56 56
51 52 53 53 52 51 50 54 52 50 45 42 35 22 19 16 15 36 13 12 20 22 18 15 15 16 15 11 11 13 13 13 15 14 15 17 15 16 15 15 15 15 14 14 10 9 10 11 11 28 22 34 36 26 25 25 32 34 32 27 25 26 27 27 27 24 25 30 38 54 45 36 27 48 51 54 55 59 59 59 59 59 59 59 59 61 58 57
51 52 54 54 53 52 51 51 53 51 48 34 24 18 15 18 15 18 14 11 24 23 21 19 17 15 14 13 13 13 12 13 14 14 14 14 14 13 13 12 16 16 14 13 13 16 10 11 18 22 28 35 34 36 34 24 24 34 33 30 25 24 31 25 30 27 28 27 31 48 35 28 28 51 54 57 56 58 59 60 62 60 60 60 59 61 59 59
51 53 53 52 51 51 50 50 51 49 45 26 18 19 13 15 11 14 14 24 20 20 19 19 17 15 12 12 14 13 14 14 13 14 13 13 13 13 12 12 13 16 15 13 18 11 14 11 18 19 16 28 31 31 34 30 22 31 29 28 24 29 25 32 33 34 32 28 23 29 26 29 32 35 48 55 57 55 58 59 58 59 60 61 58 58 59 61
52 52 46 46 49 51 51 51 50 48 44 23 17 16 15 12 14 13 28 18 19 18 17 17 16 14 11 9 12 12 12 12 12 11 14 13 12 13 13 14 15 16 15 15 14 14 15 14 17 16 14 21 24 37 37 38 33 30 24 24 33 33 31 30 24 34 26 21 28 29 23 21 24 28 41 55 55 54 57 58 55 60 61 60 59 59 60 60
52 51 49 47 47 51 52 52 50 47 33 22 17 30 22 14 16 13 20 19 18 18 16 17 19 15 12 9 7 9 12 9 11 10 8 12 8 13 12 13 15 16 16 15 14 16 13 14 15 16 20 24 26 35 36 35 37 28 23 32 24 25 25 29 27 23 23 20 21 22 28 26 25 28 34 42 45 53 57 59 58 57 58 58 60 62 63 64
53 50 40 42 49 51 52 52 48 40 29 18 18 22 23 20 20 15 19 21 19 18 17 17 16 17 13 8 7 7 10 7 9 8 9 11 8 13 12 12 14 15 15 15 13 16 15 14 17 19 15 24 27 28 23 22 33 36 33 30 28 23 20 24 27 25 24 18 22 22 29 23 34 29 29 41 53 54 56 57 59 58 58 59 61 61 64 64
46 41 36 43 46 49 51 46 36 31 23 19 17 16 25 20 16 17 21 20 17 17 17 17 17 17 14 11 8 6 8 6 8 8 7 12 6 13 10 13 13 16 16 16 14 15 16 25 19 18 22 20 19 23 19 20 20 22 24 23 25 23 26 22 21 22 21 23 22 23 21 26 38 53 47 57 58 57 58 57 60 60 61 60 63 63 66 66
49 40 38 45 45 48 47 39 29 25 24 20 20 18 20 16 17 18 20 21 17 19 17 16 15 16 17 15 10 12 10 8 8 8 8 9 8 13 12 13 14 16 17 16 15 16 20 17 14 19 17 14 16 22 26 24 21 18 17 18 20 21 22 21 21 23 22 22 24 24 24 28 52 60 58 58 59 58 60 61 58 61 62 63 63 63 64 64
46 29 37 45 49 49 45 25 21 23 20 18 18 19 20 29 16 15 15 18 16 14 17 14 14 13 14 14 13 13 13 9 8 8 8 7 9 9 13 13 14 16 14 18 15 15 21 18 14 19 16 18 23 27 30 29 28 24 20 17 18 19 20 20 19 21 23 24 25 27 26 28 50 57 58 59 61 63 63 61 61 62 63 62 63 61 64 65
35 33 45 47 49 46 40 28 28 27 20 15 20 15 16 19 18 16 15 15 14 14 14 14 13 14 13 13 13 11 14 14 11 9 7 8 8 10 16 14 15 14 13 14 14 24 35 19 18 18 24 24 25 27 32 32 29 24 23 22 21 19 19 19 21 26 26 26 28 26 29 29 56 59 60 61 62 63 63 64 63 61 62 63 63 65 66 66
43 44 42 46 50 47 36 24 21 20 16 18 21 13 17 12 14 13 13 13 14 15 14 13 14 12 14 15 12 12 16 17 13 11 11 13 12 17 15 15 15 13 12 19 21 21 19 30 25 24 23 23 22 25 24 28 27 22 20 24 24 23 25 24 26 30 28 22 23 24 25 20 47 60 59 61 61 61 62 63 64 62 62 62 63 65 66 66
49 46 43 44 49 38 28 29 31 21 15 17 18 16 22 22 24 22 23 21 21 20 20 16 14 13 12 12 14 15 15 12 16 9 8 14 13 18 17 16 15 14 14 20 52 19 17 23 28 20 22 22 22 21 23 24 23 20 25 30 32 25 28 29 22 29 27 33 36 27 26 31 53 57 59 57 59 61 63 63 63 63 63 63 62 63 65 66
36 42 39 40 40 38 38 37 34 34 30 25 24 19 24 25 29 30 32 28 29 27 23 21 19 15 13 14 14 15 15 14 12 15 14 8 11 17 18 17 16 17 45 53 37 23 19 24 25 27 22 19 21 29 19 15 19 15 22 26 27 27 26 29 28 28 25 30 34 34 33 32 33 41 54 54 56 57 60 63 62 62 62 62 63 64 64 66
45 39 37 43 41 37 36 36 35 33 33 37 31 29 27 25 31 32 34 29 29 29 29 25 22 21 18 17 16 14 14 14 17 17 15 11 14 19 20 19 20 36 57 37 38 21 33 22 24 34 25 22 19 21 20 18 15 18 19 24 26 28 29 29 26 27 42 31 26 32 38 36 35 34 35 45 54 55 56 60 63 62 61 61 63 65 64 65
40 41 43 47 43 40 37 36 38 37 37 36 35 36 32 31 32 31 33 32 34 32 27 30 25 22 27 21 22 20 22 23 24 19 14 12 16 20 18 21 27 50 45 23 31 26 21 18 27 20 19 20 16 19 19 19 16 19 21 20 28 29 33 30 28 29 33 30 27 38 43 40 36 36 37 48 52 53 56 60 63 63 61 62 64 64 64 64
41 41 40 47 43 41 41 42 41 38 36 36 37 37 34 32 32 34 36 33 32 32 30 31 27 28 30 32 31 27 30 23 22 24 25 18 16 21 19 20 28 31 29 24 26 41 32 17 27 20 23 21 20 20 22 24 20 19 20 22 28 28 30 31 28 27 29 35 34 34 40 41 38 38 46 54 57 55 58 63 63 63 61 62 63 63 63 64
46 42 45 42 39 35 36 40 41 38 35 45 39 36 35 36 33 37 36 34 32 32 33 31 34 33 34 34 36 29 33 38 38 31 28 25 22 25 23 23 24 27 23 22 22 36 30 35 33 21 24 26 26 27 24 24 25 26 22 22 24 26 25 27 27 28 31 32 33 37 41 42 40 55 56 59 59 61 60 61 62 62 61 62 62 62 64 64
49 51 52 45 36 32 38 35 38 40 38 38 35 38 38 36 37 41 40 39 36 35 34 35 36 36 35 34 32 31 36 37 39 38 37 34 28 26 27 23 25 26 22 23 22 28 25 38 31 23 21 24 24 22 23 24 26 29 26 26 25 26 29 28 30 29 34 35 36 39 39 37 54 54 57 60 60 61 60 61 62 61 61 63 63 64 64 65
50 52 52 49 40 46 31 36 35 36 35 37 39 41 39 40 40 40 38 37 37 36 37 38 39 36 36 35 36 37 37 37 37 37 39 37 36 33 28 26 24 25 23 24 26 22 22 32 27 22 18 20 29 24 22 23 23 24 26 27 29 27 29 27 29 34 37 34 34 34 34 39 50 55 54 58 58 60 60 60 61 61 62 62 63 63 64 64